Tracking 28793 objects as of 20-Apr-2024
HD Live streaming from Space Station
objects crossing your sky now

COSMOS 2491 DEB

Track COSMOS 2491 DEB now!
10-day predictions


NORAD ID: 45127
Int'l Code: 2013-076Z
Perigee: 1,346.6 km
Apogee: 1,526.1 km
Inclination: 82.5 °
Period: 114.4 minutes
Semi major axis: 7807 km
RCS: Unknown
Launch date: December 25, 2013
Source: Commonwealth of Independent States (former USSR) (CIS)
Launch site: PLESETSK MISSILE AND SPACE COMPLEX (PKMTR)

Note: This is SATELLITE DEBRIS
Your satellite tracking list
Your tracking list is empty




NASA's NSSDC Master Catalog

Two Line Element Set (TLE):
1 45127U 13076Z   24107.17585118  .00003396  00000-0  19427-1 0  9991
2 45127  82.4514 275.6358 0114978 205.1317 154.4150 12.58476831193457
Source of the keplerian elements: AFSPC